Change the Weather History Date:

Friday, March 8, 2013

  Actual Average (KDEQ) Record (KDEQ)
Temperature  
Mean Temperature 52 °F 51 °F  
Max Temperature 62 °F 64 °F 83 °F (1992)
Min Temperature 41 °F 38 °F 18 °F (1996)
Degree Days  
Heating Degree Days 14 14  
Month to date heating degree days 120  
Since 1 July heating degree days 2611  
Cooling Degree Days 0 0  
Month to date cooling degree days 0  
Year to date cooling degree days 2  
Growing Degree Days 2 (Base 50)    
Moisture  
Dew Point 33 °F    
Average Humidity 48    
Maximum Humidity 70    
Minimum Humidity 32    
Precipitation  
Precipitation 0.00 in 0.12 in 5.98 in (1990)
Month to date precipitation 0.79  
Year to date precipitation 7.79  
Snow  
Snow 0.00 in - - ()
Month to date snowfall  
Since 1 July snowfall  
Snow Depth -    
Sea Level Pressure  
Sea Level Pressure 30.18 in    
Wind  
Wind Speed 9 mph (ESE)    
Max Wind Speed 15 mph    
Max Gust Speed 20 mph    
Visibility 10 miles    
Events      
T = Trace of Precipitation, MM = Missing Value Source: NWS Daily Summary

Daily Weather History Graph

Daily Weather History Graph

Search for Another Location

Airport or City:

Trip Planner

Search our weather history database for the weather conditions in past years. The results will help you decide how hot, cold, wet, or windy it might be!

Date:

Astronomy

Mar. 08, 2013 Rise Set
Actual Time 6:38 AM CST 6:21 PM CST
Civil Twilight 6:13 AM CST 6:46 PM CST
Nautical Twilight 5:44 AM CST 7:15 PM CST
Astronomical Twilight 5:15 AM CST 7:44 PM CST
Moon 4:16 AM CST (3/8) 3:24 PM CST (3/8)
Length of Visible Light 12h 33m
Length of Day
11h 43m
Waning Crescent, 11% of the Moon is Illuminated
Mar 8
Waning Crescent
Mar 11
New
Mar 19
First Quarter
Mar 27
Full
Apr 2
Last Quarter

Hourly Weather History & Observations

Time (CST) Temp. Windchill Dew Point Humidity Pressure Visibility Wind Dir Wind Speed Gust Speed Precip Events Conditions
12:15 AM 44.6 °F 40.7 °F 30.2 °F 57% 30.20 in 10.0 mi East 6.9 mph - N/A   Clear
12:35 AM 44.6 °F 40.7 °F 30.2 °F 57% 30.20 in 10.0 mi East 6.9 mph - N/A   Clear
12:55 AM 44.6 °F 39.7 °F 30.2 °F 57% 30.20 in 10.0 mi East 9.2 mph - N/A   Clear
1:15 AM 44.6 °F 40.2 °F 30.2 °F 57% 30.20 in 10.0 mi East 8.1 mph - N/A   Clear
1:55 AM 44.6 °F 40.2 °F 32.0 °F 61% 30.20 in 10.0 mi East 8.1 mph - N/A   Clear
2:15 AM 44.6 °F 39.7 °F 32.0 °F 61% 30.20 in 10.0 mi ESE 9.2 mph - N/A   Clear
2:35 AM 44.6 °F 39.7 °F 32.0 °F 61% 30.19 in 10.0 mi ESE 9.2 mph - N/A   Clear
2:55 AM 44.6 °F 40.7 °F 32.0 °F 61% 30.19 in 10.0 mi East 6.9 mph - N/A   Clear
3:15 AM 42.8 °F 39.3 °F 32.0 °F 66% 30.20 in 10.0 mi East 5.8 mph - N/A   Clear
3:55 AM 41.0 °F 35.8 °F 32.0 °F 70% 30.20 in 10.0 mi East 8.1 mph - N/A   Clear
4:15 AM 42.8 °F 37.5 °F 32.0 °F 66% 30.20 in 10.0 mi East 9.2 mph - N/A   Clear
4:35 AM 42.8 °F 37.0 °F 32.0 °F 66% 30.21 in 10.0 mi East 10.4 mph - N/A   Clear
4:55 AM 42.8 °F 37.0 °F 32.0 °F 66% 30.22 in 10.0 mi East 10.4 mph - N/A   Clear
5:15 AM 42.8 °F 37.5 °F 32.0 °F 66% 30.22 in 10.0 mi East 9.2 mph - N/A   Clear
5:55 AM 41.0 °F 34.3 °F 32.0 °F 70% 30.22 in 10.0 mi East 11.5 mph - N/A   Clear
6:15 AM 41.0 °F 34.3 °F 32.0 °F 70% 30.22 in 10.0 mi East 11.5 mph - N/A   Clear
6:35 AM 41.0 °F 35.2 °F 32.0 °F 70% 30.24 in 10.0 mi East 9.2 mph - N/A   Clear
6:55 AM 41.0 °F 34.3 °F 32.0 °F 70% 30.24 in 10.0 mi East 11.5 mph - N/A   Clear
7:15 AM 42.8 °F 37.0 °F 32.0 °F 66% 30.24 in 10.0 mi East 10.4 mph - N/A   Clear
7:35 AM 42.8 °F 36.6 °F 32.0 °F 66% 30.25 in 10.0 mi East 11.5 mph - N/A   Clear
7:55 AM 42.8 °F 37.0 °F 32.0 °F 66% 30.26 in 10.0 mi East 10.4 mph - N/A   Clear
8:15 AM 44.6 °F 38.1 °F 33.8 °F 66% 30.26 in 10.0 mi East 13.8 mph 18.4 mph N/A   Clear
8:35 AM 46.4 °F 40.7 °F 33.8 °F 62% 30.27 in 10.0 mi East 12.7 mph 18.4 mph N/A   Clear
8:55 AM 50.0 °F - 33.8 °F 54% 30.26 in 10.0 mi East 15.0 mph - N/A   Scattered Clouds
9:15 AM 50.0 °F - 33.8 °F 54% 30.27 in 10.0 mi East 12.7 mph - N/A   Scattered Clouds
9:35 AM 51.8 °F - 33.8 °F 50% 30.27 in 10.0 mi ESE 11.5 mph - N/A   Scattered Clouds
9:55 AM 53.6 °F - 35.6 °F 51% 30.26 in 10.0 mi East 11.5 mph - N/A   Clear
10:15 AM 55.4 °F - 35.6 °F 47% 30.26 in 10.0 mi East 12.7 mph 16.1 mph N/A   Clear
10:35 AM 55.4 °F - 35.6 °F 47% 30.27 in 10.0 mi ESE 11.5 mph - N/A   Scattered Clouds
10:55 AM 55.4 °F - 35.6 °F 47% 30.27 in 10.0 mi ESE 9.2 mph - N/A   Scattered Clouds
11:15 AM 57.2 °F - 35.6 °F 44% 30.27 in 10.0 mi ESE 11.5 mph - N/A   Mostly Cloudy
11:35 AM 57.2 °F - 35.6 °F 44% 30.27 in 10.0 mi ESE 11.5 mph - N/A   Mostly Cloudy
11:55 AM 59.0 °F - 33.8 °F 39% 30.25 in 10.0 mi SE 11.5 mph 16.1 mph N/A   Mostly Cloudy
12:15 PM 59.0 °F - 33.8 °F 39% 30.25 in 10.0 mi SE 11.5 mph - N/A   Scattered Clouds
12:35 PM 59.0 °F - 33.8 °F 39% 30.23 in 10.0 mi ESE 11.5 mph - N/A   Mostly Cloudy
12:55 PM 59.0 °F - 33.8 °F 39% 30.21 in 10.0 mi ESE 13.8 mph - N/A   Overcast
1:15 PM 60.8 °F - 35.6 °F 39% 30.19 in 10.0 mi East 13.8 mph - N/A   Scattered Clouds
1:35 PM 60.8 °F - 33.8 °F 36% 30.18 in 10.0 mi ESE 12.7 mph 19.6 mph N/A   Scattered Clouds
1:55 PM 60.8 °F - 33.8 °F 36% 30.17 in 10.0 mi SE 13.8 mph - N/A   Mostly Cloudy
2:15 PM 60.8 °F - 33.8 °F 36% 30.16 in 10.0 mi ESE 13.8 mph 18.4 mph N/A   Overcast
2:35 PM 60.8 °F - 33.8 °F 36% 30.15 in 10.0 mi ESE 12.7 mph - N/A   Overcast
2:55 PM 60.8 °F - 33.8 °F 36% 30.15 in 10.0 mi SE 13.8 mph 17.3 mph N/A   Mostly Cloudy
3:15 PM 60.8 °F - 33.8 °F 36% 30.13 in 10.0 mi ESE 12.7 mph - N/A   Overcast
3:35 PM 60.8 °F - 32.0 °F 34% 30.12 in 10.0 mi ESE 11.5 mph 19.6 mph N/A   Mostly Cloudy
3:55 PM 62.6 °F - 32.0 °F 32% 30.12 in 10.0 mi ESE 11.5 mph 16.1 mph N/A   Scattered Clouds
4:15 PM 62.6 °F - 32.0 °F 32% 30.11 in 10.0 mi ESE 9.2 mph - N/A   Clear
4:35 PM 62.6 °F - 32.0 °F 32% 30.11 in 10.0 mi ESE 10.4 mph - N/A   Scattered Clouds
4:55 PM 60.8 °F - 32.0 °F 34% 30.11 in 10.0 mi ESE 10.4 mph - N/A   Scattered Clouds
5:15 PM 60.8 °F - 32.0 °F 34% 30.11 in 10.0 mi ESE 9.2 mph - N/A   Scattered Clouds
5:35 PM 60.8 °F - 32.0 °F 34% 30.11 in 10.0 mi ESE 9.2 mph - N/A   Mostly Cloudy
5:55 PM 60.8 °F - 32.0 °F 34% 30.11 in 10.0 mi East 8.1 mph - N/A   Mostly Cloudy
6:15 PM 60.8 °F - 33.8 °F 36% 30.11 in 10.0 mi East 6.9 mph - N/A   Overcast
6:35 PM 60.8 °F - 33.8 °F 36% 30.11 in 10.0 mi East 5.8 mph - N/A   Overcast
6:55 PM 59.0 °F - 33.8 °F 39% 30.11 in 10.0 mi East 6.9 mph - N/A   Overcast
7:15 PM 59.0 °F - 33.8 °F 39% 30.10 in 10.0 mi East 6.9 mph - N/A   Overcast
7:35 PM 59.0 °F - 33.8 °F 39% 30.10 in 10.0 mi ESE 6.9 mph - N/A   Mostly Cloudy
7:55 PM 59.0 °F - 33.8 °F 39% 30.10 in 10.0 mi ESE 8.1 mph - N/A   Overcast
8:15 PM 59.0 °F - 33.8 °F 39% 30.10 in 10.0 mi East 6.9 mph - N/A   Overcast
8:35 PM 59.0 °F - 33.8 °F 39% 30.10 in 10.0 mi East 6.9 mph - N/A   Overcast
8:55 PM 59.0 °F - 33.8 °F 39% 30.10 in 10.0 mi East 9.2 mph - N/A   Overcast
9:15 PM 59.0 °F - 33.8 °F 39% 30.10 in 10.0 mi ESE 5.8 mph - N/A   Overcast
9:35 PM 59.0 °F - 33.8 °F 39% 30.10 in 10.0 mi ESE 6.9 mph - N/A   Overcast
9:55 PM 59.0 °F - 33.8 °F 39% 30.10 in 10.0 mi ESE 8.1 mph - N/A   Overcast
10:15 PM 59.0 °F - 33.8 °F 39% 30.10 in 10.0 mi ESE 8.1 mph - N/A   Overcast
10:35 PM 59.0 °F - 33.8 °F 39% 30.09 in 10.0 mi East 9.2 mph - N/A   Overcast
10:55 PM 59.0 °F - 33.8 °F 39% 30.10 in 10.0 mi ESE 8.1 mph - N/A   Overcast
11:15 PM 59.0 °F - 33.8 °F 39% 30.09 in 10.0 mi East 6.9 mph - N/A   Overcast
11:35 PM 57.2 °F - 35.6 °F 44% 30.08 in 10.0 mi East 6.9 mph - N/A   Mostly Cloudy
11:55 PM 57.2 °F - 35.6 °F 44% 30.07 in 10.0 mi East 9.2 mph - N/A   Overcast